📊 Raw Sensor Data

Showing records 35626 to 35650 of 84,881 total

ID Distance (ft) Battery V Battery A Int Temp (°F) Int Humid (%) Ext Temp (°F) Solar V RSSI SNR Time Stamp
49268 15.7 4.03 0 91 43 88 5.10 -70 8 08/15/2025 12:00 PM
49267 15.7 3.89 0 90 42 88 5.10 -71 8 08/15/2025 11:30 AM
49266 15.8 3.89 0 88 42 87 5.10 -69 7 08/15/2025 11:15 AM
49265 15.8 3.89 0 87 42 89 5.10 -71 8 08/15/2025 11:00 AM
49264 15.7 3.89 0 85 42 88 5.10 -71 8 08/15/2025 10:45 AM
49263 15.7 4.10 0 83 42 83 5.10 -70 8 08/15/2025 10:30 AM
49262 15.8 4.09 0 82 42 85 5.10 -70 7 08/15/2025 10:15 AM
49261 15.8 3.89 0 79 42 82 5.10 -70 7 08/15/2025 10:00 AM
49260 15.7 3.92 0 78 42 82 5.10 -70 8 08/15/2025 09:45 AM
49259 15.7 3.89 0 76 42 76 5.10 -70 8 08/15/2025 09:30 AM
49258 15.7 3.89 0 74 42 77 5.10 -69 8 08/15/2025 09:15 AM
49257 15.7 3.89 0 73 42 77 5.10 -69 8 08/15/2025 09:00 AM
49256 15.7 3.89 0 72 42 76 5.10 -69 8 08/15/2025 08:45 AM
49255 15.7 3.89 0 70 42 74 5.10 -71 8 08/15/2025 08:30 AM
49254 15.7 3.89 0 68 42 67 5.10 -71 8 08/15/2025 08:15 AM
49253 15.7 4.07 79 67 42 75 4.50 -69 8 08/15/2025 08:00 AM
49252 15.7 3.97 32 65 42 71 4.50 -70 8 08/15/2025 07:45 AM
49251 15.6 3.90 25 62 42 70 4.50 -70 8 08/15/2025 07:30 AM
49250 15.5 3.93 0 59 43 70 4.50 -70 8 08/15/2025 07:15 AM
49249 15.5 3.83 0 57 43 64 4.50 -69 8 08/15/2025 07:00 AM
49248 15.4 3.81 0 55 44 60 4.50 -70 8 08/15/2025 06:45 AM
49247 15.4 3.79 -9 54 44 56 4.50 -70 8 08/15/2025 06:30 AM
49246 15.4 3.80 -5 55 44 55 2.00 -70 8 08/15/2025 06:15 AM
49245 15.4 3.80 -5 55 44 56 0.20 -69 8 08/15/2025 06:00 AM
49244 15.4 3.81 -5 55 44 56 0.00 -70 8 08/15/2025 05:45 AM